FW2748 Weather Reports


time (UTC)temp
F
wind
direction
speed
knots
gust
knots
rain 1hr
in
rain 24hr
in
rain mn
in
humidity
%
barometer
mb
20260510060305 50 102 0.9 0.9 0.00 0.05 0.00 78 1035.6
20260510055805 51 102 0.9 1.7 0.00 0.05 0.05 77 1035.6
20260510055307 51 102 0.0 0.0 0.00 0.05 0.05 77 1035.6
20260510054805 51 102 0.0 0.0 0.00 0.05 0.05 77 1035.6
20260510054305 51 102 0.0 0.9 0.00 0.05 0.05 77 1035.6
20260510053804 51 102 0.0 1.7 0.00 0.05 0.05 77 1035.6
20260510053305 52 102 1.7 1.7 0.00 0.05 0.05 77 1035.6
20260510052804 52 102 1.7 1.7 0.00 0.05 0.05 76 1035.6
20260510052306 52 102 2.6 4.3 0.00 0.05 0.05 76 1035.6
20260510050304 52 102 0.0 0.0 0.00 0.05 0.05 76 1035.6
20260510045804 52 102 0.0 0.9 0.00 0.05 0.05 77 1035.6
20260510045306 52 102 0.9 2.6 0.00 0.05 0.05 77 1035.6
20260510044804 52 102 2.6 2.6 0.00 0.05 0.05 77 1035.6
20260510044305 52 103 3.5 5.2 0.00 0.05 0.05 77 1035.6
20260510043804 52 104 2.6 2.6 0.00 0.05 0.05 77 1035.6
20260510043305 52 104 2.6 2.6 0.00 0.05 0.05 76 1035.6
20260510042805 52 101 2.6 4.3 0.00 0.05 0.05 75 1035.6
20260510042306 53 101 4.3 4.3 0.00 0.05 0.05 76 1035.6
20260510041304 53 101 1.7 4.3 0.00 0.05 0.05 75 1035.6
20260510040805 53 101 1.7 2.6 0.00 0.05 0.05 75 1035.6
20260510040305 53 101 1.7 2.6 0.00 0.05 0.05 74 1035.6
20260510035805 53 101 0.0 0.0 0.00 0.05 0.05 74 1035.6
20260510035306 54 101 0.0 2.6 0.00 0.05 0.05 74 1035.6
20260510034804 54 101 4.3 6.1 0.00 0.05 0.05 73 1035.6
20260510034304 54 102 4.3 5.2 0.00 0.05 0.05 73 1035.6
20260510033805 54 103 2.6 7.0 0.00 0.05 0.05 73 1035.6
20260510032804 55 105 4.3 5.2 0.00 0.05 0.05 72 1035.6
20260510032306 55 90 2.6 5.2 0.00 0.05 0.05 71 1035.6
20260510031804 56 88 2.6 5.2 0.00 0.05 0.05 70 1035.6
20260510031304 56 80 4.3 7.0 0.00 0.05 0.05 70 1035.6
20260510030804 56 127 4.3 6.1 0.00 0.05 0.05 68 1035.6
20260510030304 57 132 4.3 5.2 0.00 0.05 0.05 68 1035.6
20260510025804 57 134 4.3 5.2 0.00 0.05 0.05 67 1035.6
20260510024804 58 150 5.2 7.8 0.00 0.05 0.05 65 1035.6
20260510024305 59 123 6.1 7.8 0.00 0.05 0.05 64 1035.6
20260510023804 59 120 6.1 7.8 0.00 0.05 0.05 63 1035.6
20260510023304 60 117 7.8 7.8 0.00 0.05 0.05 59 1035.6
20260510022804 60 117 7.8 7.8 0.00 0.05 0.05 58 1035.6
20260510022307 61 113 5.2 7.0 0.00 0.05 0.05 57 1035.6
20260510021804 61 114 3.5 4.3 0.00 0.05 0.05 55 1035.6
20260510021304 61 114 5.2 5.2 0.00 0.05 0.05 54 1035.6
20260510020804 62 113 5.2 6.1 0.00 0.05 0.05 54 1035.6
20260510020304 62 111 2.6 2.6 0.00 0.05 0.05 54 1035.6
20260510015804 62 113 4.3 4.3 0.00 0.05 0.05 53 1035.6
20260510015306 63 114 4.3 6.1 0.00 0.05 0.05 53 1035.6
20260510014304 63 113 7.0 7.0 0.00 0.05 0.05 52 1035.6
20260510013805 64 105 5.2 6.1 0.00 0.05 0.05 52 1035.6
20260510013304 64 91 6.1 7.0 0.00 0.05 0.05 52 1035.6
20260510012306 64 99 2.6 5.2 0.00 0.05 0.05 52 1035.6
20260510011804 63 92 4.3 7.0 0.00 0.05 0.05 53 1035.6
20260510011304 63 85 5.2 7.8 0.00 0.05 0.05 52 1035.6
20260510010804 64 88 5.2 6.1 0.00 0.05 0.05 53 1035.6
20260510010304 64 92 4.3 6.1 0.00 0.05 0.05 52 1035.6
20260510005804 64 91 4.3 5.2 0.00 0.05 0.05 50 1035.6
20260510005306 64 96 6.1 7.8 0.00 0.05 0.05 50 1035.6
20260510004804 65 105 6.1 7.8 0.00 0.05 0.05 50 1035.6
20260510004304 66 76 4.3 5.2 0.00 0.05 0.05 48 1035.6
20260510003804 66 86 5.2 5.2 0.00 0.05 0.05 47 1035.6
20260510003304 66 13 5.2 5.2 0.00 0.05 0.05 45 1035.6
20260510002804 66 13 5.2 5.2 0.00 0.05 0.05 45 1035.6
20260510002306 66 51 4.3 6.1 0.00 0.05 0.05 45 1035.6
20260510001804 65 354 2.6 6.1 0.00 0.05 0.05 45 1035.6
20260510001304 65 355 0.9 7.0 0.00 0.05 0.05 45 1035.6
20260510000804 65 355 7.0 7.0 0.00 0.05 0.05 45 1035.6
20260510000307 65 347 5.2 7.8 0.00 0.05 0.05 46 1035.6
20260509235806 65 305 1.7 6.1 0.00 0.05 0.05 47 1035.6
20260509235307 65 338 1.7 6.1 0.00 0.05 0.05 48 1035.6
20260509234307 65 0 13.0 13.9 0.00 0.05 0.05 47 1035.6
20260509233806 65 41 8.7 13.0 0.00 0.05 0.05 47 1035.6
20260509233306 65 0 4.3 7.0 0.00 0.05 0.05 47 1035.6
20260509232306 66 355 6.1 10.4 0.00 0.05 0.05 47 1035.6
20260509231806 66 338 12.2 13.9 0.00 0.05 0.05 46 1035.6
20260509231306 66 5 10.4 12.2 0.00 0.05 0.05 47 1035.6
20260509230306 66 0 3.5 10.4 0.00 0.05 0.05 46 1035.6
20260509225306 65 24 5.2 10.4 0.00 0.05 0.05 46 1035.6
20260509224807 66 0 9.6 10.4 0.00 0.05 0.05 46 1035.6
20260509224307 66 9 5.2 5.2 0.00 0.05 0.05 46 1035.6
20260509223307 67 5 8.7 15.6 0.00 0.05 0.05 46 1035.6
20260509222807 67 350 6.1 10.4 0.00 0.05 0.05 47 1035.6
20260509222307 67 9 10.4 11.3 0.00 0.05 0.05 47 1035.6
20260509221807 66 5 7.8 11.3 0.00 0.05 0.05 47 1035.6
20260509221306 67 355 7.0 8.7 0.00 0.05 0.05 46 1035.6
20260509220806 67 355 8.7 13.0 0.00 0.05 0.05 46 1035.6
20260509220307 67 321 10.4 11.3 0.00 0.05 0.05 43 1035.6
20260509215806 67 0 9.6 10.4 0.00 0.05 0.05 44 1035.6
20260509215306 67 327 5.2 7.8 0.00 0.05 0.05 44 1035.6
20260509214807 66 348 6.1 12.2 0.00 0.05 0.05 44 1035.6
20260509214307 66 321 8.7 13.0 0.00 0.05 0.05 45 1035.6
20260509213806 66 332 7.8 13.9 0.00 0.05 0.05 44 1035.6
20260509213306 65 334 7.8 10.4 0.00 0.05 0.05 45 1035.6
20260509212806 65 324 9.6 17.4 0.00 0.05 0.05 46 1035.6
20260509212306 65 330 8.7 12.2 0.00 0.05 0.05 47 1035.6
20260509211806 65 350 13.9 20.0 0.00 0.05 0.05 47 1035.6
20260509211306 65 348 12.2 12.2 0.00 0.05 0.05 47 1035.6
20260509210806 65 353 10.4 17.4 0.00 0.05 0.05 48 1035.6
20260509210306 64 339 10.4 12.2 0.00 0.05 0.05 50 1035.6
20260509205307 64 24 8.7 10.4 0.00 0.05 0.05 50 1035.6
20260509204806 64 319 7.0 11.3 0.00 0.05 0.05 49 1035.6
20260509204306 64 331 8.7 12.2 0.00 0.05 0.05 49 1035.6
20260509203306 64 5 7.8 18.2 0.00 0.05 0.05 50 1035.6
20260509202806 63 320 10.4 18.2 0.00 0.05 0.05 49 1035.6
20260509202307 63 315 13.0 13.0 0.00 0.05 0.05 51 1035.6
20260509201806 63 295 7.8 13.9 0.00 0.05 0.05 51 1035.6
20260509201306 63 315 11.3 12.2 0.00 0.05 0.05 53 1035.6
20260509200806 63 290 10.4 13.9 0.00 0.05 0.05 51 1035.6
20260509200306 63 22 12.2 13.9 0.00 0.05 0.05 55 1035.6
20260509195307 63 304 7.0 10.4 0.04 0.05 0.05 55 1035.6
20260509194306 60 326 6.1 7.8 0.04 0.05 0.05 65 1035.6
20260509193806 59 351 0.9 1.7 0.04 0.05 0.05 74 1035.6
20260509193306 57 226 0.9 4.3 0.04 0.05 0.05 72 1035.6
20260509192806 56 238 0.9 2.6 0.04 0.05 0.05 74 1035.6
20260509191806 56 240 0.0 0.9 0.04 0.05 0.05 73 1035.6
20260509191306 55 240 2.6 5.2 0.04 0.05 0.05 71 1035.6
20260509190806 56 239 4.3 7.0 0.04 0.05 0.05 73 1035.6
20260509190306 56 338 7.0 7.0 0.04 0.05 0.05 69 1035.6
20260509185806 57 5 5.2 11.3 0.04 0.05 0.05 55 1035.6
20260509185307 60 305 11.3 11.3 0.00 0.01 0.01 55 1035.6
20260509184806 60 301 4.3 12.2 0.00 0.01 0.01 55 1035.6
20260509183806 61 307 6.1 8.7 0.00 0.01 0.01 54 1035.6
20260509183306 61 285 5.2 7.0 0.00 0.01 0.01 53 1035.6
20260509182307 61 355 8.7 11.3 0.00 0.01 0.01 59 1035.6
20260509181806 60 40 4.3 4.3 0.00 0.01 0.01 57 1035.6
20260509181306 60 40 4.3 4.3 0.00 0.01 0.01 61 1035.6
20260509180306 61 15 4.3 7.8 0.00 0.01 0.01 59 1035.6
20260509175806 60 28 7.8 7.8 0.00 0.01 0.01 60 1035.6
20260509175307 59 57 5.2 11.3 0.00 0.01 0.01 63 1035.6
20260509174806 59 34 8.7 17.4 0.00 0.01 0.01 63 1035.6
20260509174306 59 6 4.3 7.8 0.00 0.01 0.01 62 1035.6
20260509173805 60 17 6.1 12.2 0.00 0.01 0.01 61 1035.6
20260509172805 61 47 4.3 7.0 0.00 0.01 0.01 60 1035.6
20260509171805 61 19 7.0 7.0 0.00 0.01 0.01 60 1035.6
20260509171306 61 19 7.8 10.4 0.00 0.01 0.01 61 1035.6
20260509170306 60 8 7.8 10.4 0.00 0.01 0.01 62 1035.6
20260509165307 60 52 7.0 11.3 0.00 0.01 0.01 64 1035.6
20260509164806 60 38 10.4 10.4 0.00 0.01 0.01 64 1035.6
20260509164306 60 341 5.2 5.2 0.00 0.01 0.01 61 1035.6
20260509163806 60 341 4.3 7.8 0.00 0.01 0.01 60 1035.6
20260509163306 60 9 7.0 8.7 0.00 0.01 0.01 61 1035.6
20260509162806 60 34 5.2 10.4 0.00 0.01 0.01 61 1035.6
20260509161806 60 19 5.2 7.8 0.00 0.01 0.01 60 1035.6
20260509160806 60 24 6.1 7.8 0.00 0.01 0.01 59 1035.6
20260509160306 60 33 7.0 10.4 0.00 0.01 0.01 58 1035.6
20260509155805 60 11 7.8 8.7 0.00 0.01 0.01 58 1035.6
20260509154805 60 313 6.1 7.0 0.00 0.01 0.01 60 1035.6
20260509154305 59 21 5.2 7.8 0.00 0.01 0.01 60 1035.6
20260509153306 59 290 3.5 6.1 0.00 0.01 0.01 59 1035.6
20260509152805 59 274 4.3 6.1 0.00 0.01 0.01 60 1035.6
20260509152306 59 238 4.3 6.1 0.00 0.01 0.01 61 1035.6
20260509151806 58 234 3.5 6.1 0.00 0.01 0.01 63 1035.6
20260509151306 58 245 2.6 4.3 0.00 0.01 0.01 62 1035.6
20260509150805 57 244 3.5 5.2 0.00 0.01 0.01 62 1035.6
20260509150306 57 223 0.9 6.1 0.00 0.01 0.01 65 1035.6
20260509145805 57 238 4.3 6.1 0.00 0.01 0.01 63 1035.6
20260509145306 57 224 2.6 4.3 0.00 0.01 0.01 64 1035.6
20260509143806 56 225 4.3 5.2 0.00 0.01 0.01 65 1035.6
20260509143306 56 225 4.3 5.2 0.00 0.01 0.01 65 1035.6
20260509142806 56 224 4.3 4.3 0.00 0.01 0.01 65 1035.6
20260509142307 56 225 6.1 7.8 0.00 0.01 0.01 65 1035.6
20260509141305 56 239 5.2 5.2 0.00 0.01 0.01 67 1035.6
20260509140306 55 226 5.2 7.0 0.00 0.01 0.01 66 1035.6
20260509135806 55 210 2.6 5.2 0.00 0.01 0.01 68 1035.6
20260509135306 54 209 1.7 4.3 0.00 0.01 0.01 70 1035.6
20260509134805 54 209 2.6 4.3 0.00 0.01 0.01 70 1035.6
20260509134305 54 209 4.3 6.1 0.00 0.01 0.01 69 1035.6
20260509133805 54 209 4.3 4.3 0.00 0.01 0.01 69 1035.6
20260509133306 54 209 2.6 2.6 0.00 0.01 0.01 69 1035.6
20260509132805 54 209 3.5 5.2 0.00 0.01 0.01 69 1035.6
20260509132307 55 209 5.2 8.7 0.00 0.01 0.01 68 1035.6
20260509131806 55 209 5.2 8.7 0.00 0.01 0.01 68 1035.6
20260509131305 56 5 2.6 2.6 0.00 0.01 0.01 67 1035.6
20260509130805 56 317 0.9 1.7 0.00 0.01 0.01 63 1035.6
20260509130306 56 320 2.6 4.3 0.00 0.01 0.01 63 1035.6
20260509125308 56 324 4.3 10.4 0.00 0.01 0.01 64 1035.6
20260509124805 56 319 3.5 7.8 0.00 0.01 0.01 64 1035.6
20260509124305 56 296 4.3 6.1 0.00 0.01 0.01 64 1035.6
20260509123805 56 308 5.2 10.4 0.00 0.01 0.01 64 1035.6
20260509123305 56 317 4.3 5.2 0.00 0.01 0.01 65 1035.6
20260509122306 55 163 1.7 2.6 0.00 0.01 0.01 67 1035.6
20260509121806 55 161 2.6 4.3 0.00 0.01 0.01 67 1035.6
20260509121306 55 159 0.9 2.6 0.00 0.01 0.01 67 1035.6
20260509120805 55 159 3.5 4.3 0.00 0.01 0.01 67 1035.6
20260509120305 56 164 4.3 4.3 0.00 0.01 0.01 63 1035.6
20260509115806 56 184 1.7 4.3 0.00 0.01 0.01 63 1035.6
20260509115307 56 236 0.9 5.2 0.00 0.01 0.01 64 1035.6
20260509114806 57 236 5.2 5.2 0.00 0.01 0.01 63 1035.6
20260509113805 57 249 4.3 7.0 0.00 0.01 0.01 62 1035.6
20260509113305 57 296 2.6 7.8 0.00 0.01 0.01 62 1035.6
20260509112805 57 305 7.8 8.7 0.00 0.01 0.01 62 1035.6
20260509112307 57 273 2.6 6.1 0.00 0.01 0.01 62 1035.6
20260509111805 57 269 3.5 6.1 0.00 0.01 0.01 62 1035.6
20260509111306 57 252 5.2 5.2 0.00 0.01 0.01 62 1035.6
20260509110805 58 252 6.1 7.8 0.00 0.01 0.01 61 1035.6
20260509110306 58 250 6.1 8.7 0.00 0.01 0.01 61 1035.6
20260509105805 58 271 8.7 8.7 0.00 0.01 0.01 60 1035.6
20260509105306 58 258 5.2 7.0 0.00 0.01 0.01 60 1035.6
20260509104806 58 253 7.8 7.8 0.00 0.01 0.01 60 1035.6
20260509104305 58 257 7.0 7.8 0.00 0.01 0.01 60 1035.6
20260509103805 58 251 7.0 7.8 0.00 0.01 0.01 61 1035.6
20260509103305 58 244 5.2 6.1 0.00 0.01 0.01 63 1035.6
20260509102805 58 246 6.1 7.0 0.00 0.01 0.01 63 1035.6
20260509101305 57 251 2.6 5.2 0.00 0.01 0.01 64 1035.6
20260509100805 56 246 5.2 5.2 0.00 0.01 0.01 70 1035.6
20260509100305 56 246 5.2 7.0 0.00 0.01 0.01 71 1035.6
20260509095805 56 221 5.2 6.1 0.00 0.01 0.01 70 1035.6
20260509095306 57 217 5.2 5.2 0.00 0.01 0.01 68 1035.6
20260509094805 57 287 4.3 4.3 0.00 0.01 0.01 65 1035.6
20260509094305 58 298 1.7 4.3 0.00 0.01 0.01 64 1035.6
20260509093805 58 300 2.6 5.2 0.00 0.01 0.01 64 1035.6
20260509093305 57 305 5.2 5.2 0.00 0.01 0.01 65 1035.6
20260509092806 57 294 4.3 6.1 0.01 0.01 0.01 68 1035.6
20260509092306 57 40 0.0 0.0 0.01 0.01 0.01 69 1035.6
20260509091804 56 40 0.0 0.0 0.01 0.01 0.01 70 1035.6
20260509091305 56 41 0.0 0.0 0.01 0.01 0.01 71 1035.6
20260509090805 56 41 0.0 2.6 0.01 0.01 0.01 72 1035.6
20260509090306 57 40 2.6 4.3 0.01 0.01 0.01 72 1035.6
20260509085805 57 41 0.0 2.6 0.01 0.01 0.01 72 1035.6
20260509085306 57 42 1.7 4.3 0.01 0.01 0.01 71 1035.6
20260509084805 58 40 2.6 2.6 0.01 0.01 0.01 68 1035.6
20260509084305 59 40 0.0 0.0 0.01 0.01 0.01 67 1035.6
20260509083805 59 40 0.9 7.0 0.01 0.01 0.01 63 1035.6
20260509083305 60 19 4.3 5.2 0.01 0.01 0.01 61 1035.6
20260509082805 61 21 4.3 6.1 0.00 0.00 0.00 57 1035.6
20260509081805 63 30 6.1 7.8 0.00 0.00 0.00 52 1035.6
20260509081305 63 28 3.5 22.6 0.00 0.00 0.00 49 1035.6
20260509080305 64 353 7.8 10.4 0.00 0.00 0.00 46 1035.6
20260509075805 64 329 5.2 13.9 0.00 0.00 0.00 44 1035.6
20260509075306 64 292 4.3 7.0 0.00 0.00 0.00 45 1035.6
20260509074305 64 19 4.3 7.0 0.00 0.00 0.00 44 1035.6
20260509073805 64 344 2.6 5.2 0.00 0.00 0.00 44 1035.6
20260509073305 64 261 2.6 6.1 0.00 0.00 0.00 44 1035.6
20260509072306 64 245 5.2 10.4 0.00 0.00 0.00 43 1035.6
20260509071805 64 274 7.0 11.3 0.00 0.00 0.00 43 1035.6
20260509071305 64 246 9.6 13.0 0.00 0.00 0.00 43 1035.6
20260509070805 64 243 7.0 13.0 0.00 0.00 0.00 43 1035.6
20260509070305 65 263 7.8 10.4 0.00 0.00 0.00 43 1035.6
20260509065805 65 263 5.2 8.7 0.00 0.00 0.00 43 1035.6
20260509065306 65 271 5.2 11.3 0.00 0.00 0.00 43 1035.6
20260509064804 65 257 5.2 10.4 0.00 0.00 0.00 42 1035.6
20260509064305 66 262 5.2 13.0 0.00 0.00 0.00 40 1035.6
20260509063805 66 251 10.4 15.6 0.00 0.00 0.00 40 1035.6
20260509063304 66 250 11.3 19.1 0.00 0.00 0.00 39 1035.6
20260509062804 66 263 11.3 20.0 0.00 0.00 0.00 40 1035.6
20260509062306 66 252 11.3 13.9 0.00 0.00 0.00 39 1035.6
20260509061804 66 260 12.2 13.0 0.00 0.00 0.00 40 1035.6
20260509061305 66 247 13.0 13.0 0.00 0.00 0.00 39 1035.6